Skip Page Navigation
NASA JPL Caltech
NASA Logo - Jet Propulsion Laboratory + View the NASA Portal
+ Near-Earth Object (NEO) Program
Search JPL
JPL Home Earth Solar System Stars & Galaxies Technology
JPL Solar System Dynamics
BODIES ORBITS EPHEMERIDES TOOLS PHYSICAL DATA DISCOVERY FAQ SITE MAP
JPL Small-Body Database Browser
Search: [ help ]  
30440 Larry (2000 MG)
Classification: Main-belt Asteroid          SPK-ID: 2030440
Ephemeris | Orbit Diagram | Orbital Elements | Physical Parameters | Discovery Circumstances | Close-Approach Data ]

[ show orbit diagram ]
Orbital Elements at Epoch 2457000.5 (2014-Dec-09.0) TDB
Reference: JPL 10 (heliocentric ecliptic J2000)
 Element Value Uncertainty (1-sigma)   Units 
e .20092652525883 6.23e-08  
a 3.000013375026335 3.4306e-08 AU
q 2.397231111852279 1.9592e-07 AU
i 1.423989892760608 8.1236e-06 deg
node 354.4992676049585 0.00022951 deg
peri 250.2592030830504 0.00023047 deg
M 300.0030589393943 1.988e-05 deg
tp 2457316.807741340655
(2015-Oct-21.30774134)
0.00010535 JED
period 1897.943209598131
5.20
3.2555e-05
8.913e-08
d
yr
n .1896790157784679 3.2536e-09 deg/d
Q 3.602795638200392 4.1199e-08 AU
  Orbit Determination Parameters
   # obs. used (total)      566  
   data-arc span      11306 days (30.95 yr)  
   first obs. used      1984-06-01  
   last obs. used      2015-05-16  
   planetary ephem.      DE431  
   SB-pert. ephem.      SB431-BIG16  
   condition code      0  
   fit RMS      .60835  
   data source      ORB  
   producer      Otto Matic  
   solution date      2015-Jun-04 17:02:18  

Additional Information
 Earth MOID = 1.3861 AU 
 T_jup = 3.222 
[ show covariance matrix ]

Ephemeris | Orbit Diagram | Orbital Elements | Physical Parameters | Discovery Circumstances | Close-Approach Data ]

Physical Parameter Table
Parameter Symbol Value Units Sigma Reference Notes
absolute magnitude H 14.7 mag n/a MPO257076  

30440 Larry           Discovered 2000 June 22 by J. Broughton at Reedy Creek Observatory.
Philadelphia-born Larry Fine (Louis Feinberg, 1902-1975) was a longtime member of "The Three Stooges". The one in the middle with a scared-porcupine hairstyle, Larry was often the recipient of the collateral damage of slaps, pokes and bumps while trying to keep the peace between the other two.
NOTE: some special characters may not display properly (any characters within {} are an attempt to place the proper accent above a character)
Reference: 20020427/MPCPages.arcLast Updated: 2003-10-02

[ show close-approach data ]
Ephemeris | Orbit Diagram | Orbital Elements | Physical Parameters | Discovery Circumstances | Close-Approach Data ]
ABOUT SSD CREDITS/AWARDS PRIVACY/COPYRIGHT GLOSSARY LINKS
FirstGov 2015-Aug-05 04:19 UT
(server date/time)  
NASA Home Page
Site Manager:   Ryan S. Park
Webmaster  Alan B. Chamberlin